Printer-friendly version
Follow the MPC on Twitter Follow the MPC on Facebook The MPC blog
Minor Planet Center

MPEC 2000-V34 : 2000 UV13

The following Minor Planet Electronic Circular may be linked-to from your own Web pages, but must not otherwise be redistributed electronically.

A form allowing access to any MPEC is at the bottom of this page.


Read MPEC 2000-V33 Read MPEC 2000-V35


M.P.E.C. 2000-V34                                Issued 2000 Nov. 11, 22:03 UT

     The Minor Planet Electronic Circulars contain information on unusual
         minor planets and routine data on comets.  They are published
   on behalf of Commission 20 of the International Astronomical Union by the
          Minor Planet Center, Smithsonian Astrophysical Observatory,
                          Cambridge, MA 02138, U.S.A.

             Prepared using the Tamkin Foundation Computer Network

                              MPC@CFA.HARVARD.EDU
          URL http://cfa-www.harvard.edu/iau/mpc.html  ISSN 1523-6714

                                   2000 UV13

                           Revision to MPEC 2000-U34

Observations:
     K00U13V 2 1996 10 12.42153 05 21 50.61 +64 26 17.1          17.6 V      261
     K00U13V 2 1996 10 12.45278 05 21 52.20 +64 26 54.0                      261
     K00U13V 2 1996 11 14.34375 05 06 42.30 +75 53 23.6          16.5 V      261
     K00U13V 2 1996 11 14.38194 05 06 35.71 +75 54 08.4                      261

Observer details:
261 Palomar-DSS.  Trail located and measured by located and measured by ANEOPP
    (A. Boattini, G. Forti, M. Tombelli, G. D'Abramo).  1.2-m Schmidt.

Orbital elements:
2000 UV13
Id. ANEOPP (1996 observations)
Epoch 2000 Sept. 13.0 TT = JDT 2451800.5                Williams
M 321.09179              (2000.0)            P               Q
n   0.25955488     Peri.  198.10603     -0.98490474     +0.13083467
a   2.4339776      Node   347.63294     +0.01586324     -0.58377292
e   0.6259335      Incl.   31.94977     -0.17236885     -0.80130610
P   3.80           H   13.4           G   0.15           U   4
Residuals in seconds of arc
961012 261  0.2-  0.1+    001027 903  0.6-  1.2-    001103 888  0.1+  0.3-
961012 261  0.8+  0.5-    001028 327  0.5-  0.2-    001103 349  0.8+  0.2-
961114 261  1.0-  0.4+    001028 327  0.3-  0.4-    001103 300  0.2-  0.1+
961114 261  0.4+  0.1+    001028 327  0.1+  0.7-    001103 300  0.3+  0.1-
001021 300  0.9+  0.1-    001028 327  0.9+  0.3-    001103 908  0.3+  0.2+
001021 300  0.0   0.4-    001029 557  0.1-  0.3+    001103 300  0.5+  0.0
001021 300  1.1-  0.6-    001029 557  0.1-  0.2+    001103 300  0.1-  0.3+
001023 300  1.1+  0.3+    001029 557  0.1+  0.1+    001103 908  0.2+  0.2+
001023 300  0.2+  0.1-    001029 046  0.5-  0.1+    001103 908  0.2+  0.3+
001023 349  1.3-  1.0-    001029 046  0.2+  0.3+    001103 349  0.1-  0.2-
001023 300  0.2+  0.0     001029 046  0.4-  0.5+    001103 349  0.2+  0.9+
001023 349  0.6-  0.3+    001029 046  0.1+  0.3-    001104 349  0.1-  0.2-
001023 349  1.0+  0.6+    001029 046  0.9-  0.3-    001104 349  0.4-  0.1-
001023 349  0.3+  0.6-    001029 946  0.0   0.6-    001104 300  0.4+  0.2+
001023 349  0.7-  0.2+    001029 946  0.5-  0.4-    001104 300  0.2-  0.1-
001023 046  0.1+  0.5+    001029 946  0.5-  0.4-    001104 300  0.3+  0.3-
001023 046  0.2+  0.4+    001029 711  0.1+  0.2-    001104 300  0.0   0.7-
001023 046  0.2+  0.7+    001029 711  0.1+  0.2-    001104 300  0.8-  0.2-
001023 046  0.0   0.6+    001029 711  0.0   0.0     001104 300  0.4+  0.3+
001023 046  0.2+  0.6+    001029 344  0.3+  0.1-    001104 300  0.0   0.3-
001024 118  0.4+  0.3+    001029 344  0.5+  0.1-    001104 349  0.4-  0.5+
001024 118  0.4+  0.2+    001029 344  0.3+  0.0     001104 349  0.8-  0.7+
001024 118  0.1+  0.4+    001030 300  0.1+  0.2+    001105 300  0.1+  0.0
001024 670  0.1-  0.3+    001030 300  0.3+  0.4+    001105 300  0.5+  0.1+
001024 670  0.2+  0.4+    001030 300  0.2-  0.3+    001105 300  0.2+  0.5-
001024 670  0.3-  0.6+    001030 355  0.3-  0.1-    001105 300  0.1-  0.3+
001026 300  0.2+  1.0-    001030 300  0.2-  0.2+    001105 300  0.2+  0.6-
001026 300  0.0   0.4+    001030 355  0.1-  0.5+    001105 300  0.1-  0.3+
001026 300  1.0+  0.8-    001030 300  0.1-  0.4+    001105 300  0.6+  0.2+
001026 300  0.6+  0.2-    001030 355  0.1+  0.7+    001105 300  0.2+  0.3-
001026 300  0.2+  0.3+    001030 300  0.6-  0.0     001105 300  0.6+  0.0
001026 300  0.4+  0.4-    001030 300  0.2-  0.1+    001106 300  0.3+  0.6+
001027 300  0.4-  0.2+    001031 670  0.4+  0.3+    001106 300  0.3-  0.0
001027 300  0.2-  0.0     001103 888  0.0   0.1+    001106 300  0.1-  0.1-
001027 903  1.2-  1.4-    001103 300  0.5-  0.2+    001106 300  0.2-  0.2-
001027 903  0.7-  0.9-    001103 888  0.4-  0.2-    001106 300  0.6-  0.1-

Ephemeris:
2000 UV13                a,e,i = 2.43, 0.63, 32                  q = 0.9105
Date    TT    R. A. (2000) Decl.     Delta      r     Elong.  Phase     V
2000 11 02    10 33.38   +49 08.6    1.355    1.571    82.4    38.8    16.6
2000 11 12    11 13.44   +46 22.1    1.226    1.482    83.3    41.5    16.3
2000 11 22    11 52.29   +42 37.9    1.104    1.394    83.4    44.7    16.0
2000 12 02    12 29.62   +37 46.4    0.990    1.307    82.8    48.5    15.8
2000 12 12    13 05.47   +31 33.9    0.886    1.222    81.4    52.8    15.5
2000 12 22    13 40.34   +23 42.9    0.794    1.141    79.1    57.9    15.3
2001 01 01    14 15.11   +13 55.9    0.718    1.067    75.9    63.4    15.1
2001 01 11    14 51.24   +02 08.6    0.664    1.003    72.1    68.9    14.9
2001 01 21    15 30.77   -11 04.6    0.641    0.953    68.1    73.3    14.9
2001 01 31    16 15.96   -24 14.6    0.652    0.921    64.8    75.4    14.9
2001 02 10    17 08.54   -35 28.4    0.696    0.910    62.7    74.4    15.0
2001 02 20    18 08.02   -43 30.6    0.765    0.922    61.9    71.1    15.1
2001 03 02    19 10.21   -48 10.2    0.847    0.954    61.9    66.5    15.3
2001 03 12    20 08.99   -50 05.5    0.932    1.004    62.8    61.6    15.5
2001 03 22    20 59.95   -50 13.5    1.012    1.068    64.3    57.2    15.6
2001 04 01    21 41.83   -49 25.4    1.081    1.142    66.4    53.3    15.8
2001 04 11    22 15.42   -48 16.3    1.139    1.223    69.3    50.1    16.0
2001 04 21    22 42.13   -47 08.0    1.182    1.308    72.9    47.3    16.1
2001 05 01    23 03.07   -46 13.8    1.212    1.395    77.3    44.8    16.3
2001 05 11    23 18.97   -45 41.1    1.228    1.484    82.4    42.4    16.4
2001 05 21    23 30.19   -45 34.3    1.233    1.572    88.3    40.1    16.4
2001 05 31    23 36.60   -45 55.7    1.228    1.660    95.0    37.5    16.5
2001 06 10    23 37.81   -46 44.3    1.218    1.746   102.5    34.6    16.5
2001 06 20    23 33.14   -47 55.7    1.207    1.831   110.6    31.3    16.5
2001 06 30    23 21.79   -49 19.7    1.200    1.915   119.3    27.6    16.4
2001 07 10    23 03.38   -50 38.6    1.202    1.996   128.0    23.6    16.4
2001 07 20    22 38.63   -51 30.6    1.220    2.076   136.1    19.8    16.4
2001 07 30    22 10.01   -51 34.2    1.259    2.154   142.3    16.8    16.5
2001 08 09    21 41.48   -50 39.9    1.323    2.229   144.8    15.2    16.6
2001 08 19    21 16.73   -48 54.2    1.412    2.303   143.1    15.3    16.8
2001 08 29    20 57.86   -46 33.6    1.526    2.375   138.0    16.5    17.1
2001 09 08    20 45.24   -43 56.7    1.663    2.444   130.9    18.2    17.4
2001 09 18    20 38.14   -41 17.1    1.820    2.512   123.0    19.6    17.7
2001 09 28    20 35.59   -38 42.6    1.992    2.578   114.8    20.7    18.0
2001 10 08    20 36.58   -36 16.7    2.176    2.642   106.6    21.2    18.2
2001 10 18    20 40.28   -34 00.3    2.369    2.704    98.6    21.4    18.5

Timothy B. Spahr             (C) Copyright 2000 MPC           M.P.E.C. 2000-V34

Read MPEC 2000-V33 Read MPEC 2000-V35


MPEC number:

Enter an MPEC number in one of the following forms:

  • 1997-B01 (the full form)
  • J97B01 (the packed version of the full form)
  • B01 (the abbreviated form)

Valid HTML 4.01!